Tupelo, MS

12:18 AM CDT on July 27, 2017 (GMT -0500)
Tupelo Regional

Weather History for KTUP - October, 2013

Change the Weather History Date:

Saturday, October 26, 2013

  Actual Average Record
Temperature  
Mean Temperature 50 °F 60 °F  
Max Temperature 68 °F 72 °F 88 °F (1939)
Min Temperature 32 °F 48 °F 27 °F (1968)
Degree Days  
Heating Degree Days 15 7  
Month to date heating degree days 114 100  
Since 1 July heating degree days 114 112  
Cooling Degree Days 0 1  
Month to date cooling degree days 93 71  
Year to date cooling degree days 2019 2029  
Moisture  
Dew Point 36 °F    
Average Humidity 64    
Maximum Humidity 96    
Minimum Humidity 31    
Precipitation  
Precipitation 0.00 in 0.14 in 2.27 in (1932)
Month to date precipitation 1.05 3.49  
Year to date precipitation 41.41 43.40  
Snow  
Snow 0.00 in 0.00 in 0.00 in (2002)
Month to date snowfall 0.0 0.0  
Since 1 July snowfall 0.0 0.0  
Since 1 September snowfall 0.0 0.0  
Snow Depth 0.00 in    
Sea Level Pressure  
Sea Level Pressure 30.25 in    
Wind  
Wind Speed 3 mph (SW)    
Max Wind Speed 13 mph    
Max Gust Speed 20 mph    
Visibility 9 miles    
Events      
T = Trace of Precipitation, MM = Missing Value Source: NWS Daily Summary

Daily Weather History Graph

Daily Weather History Graph

Search for Another Location

Airport or City:

Trip Planner

Search our weather history database for the weather conditions in past years. The results will help you decide how hot, cold, wet, or windy it might be!

Date:

Astronomy

Oct. 26, 2013 Rise Set
Actual Time 7:09 AM CDT 6:07 PM CDT
Civil Twilight 6:44 AM CDT 6:33 PM CDT
Nautical Twilight 6:14 AM CDT 7:02 PM CDT
Astronomical Twilight 5:45 AM CDT 7:31 PM CDT
Moon No Moon Rise 1:23 PM CDT (10/26)
Length of Visible Light 11h 49m
Length of Day
10h 57m
Waning Gibbous, 53% of the Moon is Illuminated
Oct 26
Waning Gibbous
Oct 26
Last Quarter
Nov 3
New
Nov 9
First Quarter
Nov 17
Full

Hourly Weather History & Observations

Time (CDT) Temp. Windchill Dew Point Humidity Pressure Visibility Wind Dir Wind Speed Gust Speed Precip Events Conditions
12:53 AM 37.0 °F - 33.1 °F 86% 30.34 in 10.0 mi Calm Calm - N/A   Clear
1:53 AM 36.0 °F - 32.0 °F 86% 30.32 in 5.0 mi Calm Calm - N/A   Clear
2:22 AM 35.6 °F - 32.0 °F 87% 30.31 in 2.0 mi Calm Calm - N/A   Clear
2:32 AM 35.6 °F - 32.0 °F 87% 30.31 in 8.0 mi Calm Calm - N/A   Clear
2:53 AM 35.1 °F - 32.0 °F 89% 30.31 in 9.0 mi Calm Calm - N/A   Clear
3:53 AM 35.1 °F - 32.0 °F 89% 30.30 in 5.0 mi Calm Calm - N/A   Clear
4:07 AM 33.8 °F - 30.2 °F 87% 30.29 in 2.5 mi Calm Calm - N/A   Clear
4:14 AM 35.6 °F - 32.0 °F 87% 30.29 in 3.0 mi Calm Calm - N/A   Clear
4:53 AM 34.0 °F - 30.9 °F 89% 30.30 in 10.0 mi Calm Calm - N/A   Clear
5:53 AM 33.1 °F - 30.0 °F 89% 30.31 in 10.0 mi Calm Calm - N/A   Clear
6:53 AM 33.1 °F - 30.0 °F 89% 30.32 in 10.0 mi Calm Calm - N/A   Clear
7:53 AM 34.0 °F - 32.0 °F 92% 30.32 in 10.0 mi Calm Calm - N/A   Clear
8:53 AM 43.0 °F 41.3 °F 35.1 °F 74% 30.32 in 10.0 mi South 3.5 mph - N/A   Clear
9:53 AM 48.9 °F - 35.1 °F 59% 30.31 in 10.0 mi South 8.1 mph - N/A   Clear
10:53 AM 55.0 °F - 34.0 °F 45% 30.30 in 10.0 mi SSW 8.1 mph - N/A   Clear
11:53 AM 59.0 °F - 33.1 °F 38% 30.27 in 10.0 mi WSW 5.8 mph - N/A   Clear
12:53 PM 61.0 °F - 35.1 °F 38% 30.25 in 10.0 mi SW 5.8 mph - N/A   Clear
1:53 PM 64.9 °F - 34.0 °F 32% 30.21 in 10.0 mi West 5.8 mph - N/A   Clear
2:53 PM 66.0 °F - 39.0 °F 37% 30.19 in 10.0 mi WSW 4.6 mph - N/A   Clear
3:53 PM 66.0 °F - 41.0 °F 40% 30.17 in 10.0 mi SW 10.4 mph - N/A   Clear
4:53 PM 64.9 °F - 41.0 °F 42% 30.17 in 10.0 mi WSW 5.8 mph - N/A   Partly Cloudy
5:53 PM 62.1 °F - 43.0 °F 50% 30.15 in 10.0 mi Calm Calm - N/A   Scattered Clouds
6:53 PM 61.0 °F - 44.1 °F 54% 30.17 in 10.0 mi WSW 4.6 mph - N/A   Overcast
7:53 PM 60.1 °F - 45.0 °F 57% 30.16 in 10.0 mi WSW 3.5 mph - N/A   Mostly Cloudy
8:53 PM 54.0 °F - 46.0 °F 75% 30.16 in 10.0 mi Calm Calm - N/A   Clear
9:53 PM 51.1 °F - 45.0 °F 80% 30.15 in 10.0 mi SW 4.6 mph - N/A   Partly Cloudy
10:53 PM 51.1 °F - 45.0 °F 80% 30.15 in 10.0 mi Calm Calm - N/A   Partly Cloudy
11:53 PM 54.0 °F - 46.9 °F 77% 30.13 in 10.0 mi Calm Calm - N/A   Overcast